Regional Weather Roundup
Issued by NWS

Home | Current Version | Previous Version | Text Only | Print | Product List | Glossary Off
Versions: 1 2 3 4 5 6 7 8 9 10 11 12 13 14 15 16 17 18 19 20 21 22 23 24 25 26 27 28 29 30 31 32 33 34 35 36 37 38 39 40 41 42 43 44 45 46 47 48 49 50

092
ASUS43 KIND 220700
RWRIN

WEATHER ROUNDUP FOR INDIANA
NATIONAL WEATHER SERVICE INDIANAPOLIS IN
300 AM EDT SAT JUL 22 2017

NOTE: "FAIR" INDICATES FEW OR NO CLOUDS BELOW 12,000 FEET WITH NO
SIGNIFICANT WEATHER AND/OR OBSTRUCTIONS TO VISIBILITY.

* - STATION DOES NOT REPORT WEATHER SUCH AS PRECIPITATION OR FOG.

+ - STATION NOT QUALITY CONTROLLED BY THE NATIONAL WEATHER SERVICE.
    USE DATA WITH CAUTION...ESPECIALLY DEWPOINT AND RELATIVE
    HUMIDITY OBSERVATIONS.

INZ001>003-010>013-019-020-220800-
NORTHWEST INDIANA

CITY           SKY/WX    TMP DP  RH WIND       PRES   REMARKS
MICHIGAN CITY+ LGT RAIN  70  70 100 SE5       29.84F
MONTICELLO +   RAIN      71  69  95 N3        29.87R
RENSSELAER +   RAIN      72  68  88 N3        29.88F

$$

LMZ046-743>745-220800-
SOUTHERN LAKE MICHIGAN

STATION/POSITION TIME  TEMP    WIND        PRES    WAVE
                       AIR SEA DIR/SP/G            HT
                 (UTC) (F)     (DEG/KT/KT) (MB)    (FT)
BURNS HARBOR     0640   72     180/  7/ 13 1010.8F
MICHIGAN CITY    0630   72     150/ 11/ 12   N/A
5NW MICH CITY    0650   72 74  170/ 14/ 16   N/A     2

$$

INZ004-005-014>016-021>024-220800-
NORTH CENTRAL INDIANA

CITY           SKY/WX    TMP DP  RH WIND       PRES   REMARKS
GOSHEN         TSTM      73  70  90 SE3       29.89F FOG
PERU/GRISSOM   CLOUDY    75  75 100 SE12      29.82F THUNDER
SOUTH BEND     RAIN      71  71 100 SE13      29.86F

$$

INZ006>009-017-018-025>027-220800-
NORTHEAST INDIANA

CITY           SKY/WX    TMP DP  RH WIND       PRES   REMARKS
FORT WAYNE     TSTM      72  69  90 S8        29.90F
KENDALLVILLE + RAIN      70  70  99 CALM      29.91F

$$

INZ028-029-035-036-043>045-051>053-220800-
WEST CENTRAL INDIANA

CITY           SKY/WX    TMP DP  RH WIND       PRES   REMARKS
LAFAYETTE      TSTM      71  71 100 W12       29.91R FOG
TERRE HAUTE    PTCLDY    80  76  87 S5        29.87F

$$

INZ030>032-037>040-046>048-054>057-064-065-220800-
CENTRAL INDIANA

CITY           SKY/WX    TMP DP  RH WIND       PRES   REMARKS
GREENWOOD *+   MOCLDY    78  74  88 S6        29.90F
INDIANAPOLIS   NOT AVBL
-EAGLE CREEK   CLOUDY    78  75  90 S3        29.87F
KOKOMO +       CLOUDY    76  72  87 S12       29.85F
MT COMFORT *+  CLOUDY    75  73  94 S7        29.90F
SHELBYVILLE    PTCLDY    80  74  81 S8        29.89F

$$

INZ033-034-041-042-049-050-058-059-220800-
EAST CENTRAL INDIANA

CITY           SKY/WX    TMP DP  RH WIND       PRES   REMARKS
MUNCIE         CLOUDY    77  72  84 S7        29.87F
RICHMOND +     CLOUDY    72  70  94 SE6       29.93F

$$

INZ060-061-067>069-081>083-085>088-220800-
SOUTHWEST INDIANA

CITY           SKY/WX    TMP DP  RH WIND       PRES   REMARKS
EVANSVILLE     CLEAR     81  75  82 SW7       29.89F
HUNTINGBURG *+ CLEAR     81  75  82 S7        29.91S

$$

INZ062-063-066-070>080-084-089>092-220800-
SOUTH CENTRAL AND SOUTHEAST INDIANA

CITY           SKY/WX    TMP DP  RH WIND       PRES   REMARKS
BLOOMINGTON    CLOUDY    81  74  79 SW6       29.90F
MADISON *+     PTCLDY    77  73  88 S3        29.93F
SEYMOUR +      CLOUDY    79  77  94 S3        29.90F

$$





USA.gov is the U.S. government's official web portal to all federal, state and local government web resources and services.